Hourly Weather Gojszcz

Today, 15 May, Saturday

Time Temperature Precipitation Wind Pressure Humidity
00:00 +10°C° 0 mm 4 mps 739 mmHg 96%
01:00 +10°C° 0 mm 4 mps 740 mmHg 97%
02:00 +8°C° 0 mm 4 mps 740 mmHg 97%
03:00 +9°C° 0 mm 3 mps 740 mmHg 97%
04:00 +8°C° 0 mm 3 mps 740 mmHg 97%
05:00 +9°C° 0 mm 3 mps 741 mmHg 93%
06:00 +10°C° 0 mm 4 mps 741 mmHg 89%
07:00 +11°C° 0 mm 4 mps 741 mmHg 85%
08:00 +12°C° 0 mm 4 mps 742 mmHg 80%
09:00 +13°C° 0 mm 4 mps 742 mmHg 75%
10:00 +14°C° 0 mm 4 mps 742 mmHg 70%
11:00 +15°C° 0 mm 5 mps 742 mmHg 65%
12:00 +16°C° 0 mm 5 mps 742 mmHg 60%
13:00 +17°C° 0 mm 5 mps 742 mmHg 55%
14:00 +18°C° 0 mm 4 mps 742 mmHg 55%
15:00 +18°C° 0 mm 3 mps 742 mmHg 54%
16:00 +18°C° 0 mm 3 mps 742 mmHg 54%
17:00 +17°C° 0 mm 2 mps 742 mmHg 59%
18:00 +15°C° 0 mm 2 mps 742 mmHg 65%
19:00 +14°C° 0 mm 1 mps 741 mmHg 71%
20:00 +13°C° 0 mm 2 mps 741 mmHg 74%
21:00 +12°C° 0 mm 2 mps 741 mmHg 76%
22:00 +10°C° 0 mm 2 mps 741 mmHg 79%
23:00 +10°C° 0 mm 3 mps 741 mmHg 80%

Tomorrow, 16 May, Sunday

Time Temperature Precipitation Wind Pressure Humidity
00:00 +10°C° 0 mm 3 mps 741 mmHg 82%
01:00 +10°C° 0 mm 3 mps 741 mmHg 83%
02:00 +10°C° 0.1 mm 3 mps 741 mmHg 85%
03:00 +10°C° 0.1 mm 3 mps 741 mmHg 87%
04:00 +10°C° 0.1 mm 3 mps 741 mmHg 88%
05:00 +11°C° 0.1 mm 3 mps 741 mmHg 86%
06:00 +12°C° 0.1 mm 4 mps 741 mmHg 83%
07:00 +14°C° 0.1 mm 4 mps 741 mmHg 81%
08:00 +14°C° 0.2 mm 4 mps 741 mmHg 78%
09:00 +15°C° 0.2 mm 4 mps 741 mmHg 76%
10:00 +17°C° 0.2 mm 4 mps 741 mmHg 74%
11:00 +18°C° 0.3 mm 4 mps 740 mmHg 71%
12:00 +18°C° 0.3 mm 3 mps 740 mmHg 68%
13:00 +19°C° 0.3 mm 3 mps 740 mmHg 65%
14:00 +19°C° 0.6 mm 3 mps 739 mmHg 67%
15:00 +19°C° 0.6 mm 3 mps 739 mmHg 69%
16:00 +18°C° 0.6 mm 3 mps 739 mmHg 70%
17:00 +17°C° 0.9 mm 3 mps 739 mmHg 78%
18:00 +14°C° 0.9 mm 3 mps 739 mmHg 86%
19:00 +12°C° 0.9 mm 4 mps 739 mmHg 94%
20:00 +12°C° 0 mm 3 mps 739 mmHg 95%
21:00 +11°C° 0 mm 3 mps 739 mmHg 96%
22:00 +12°C° 0 mm 2 mps 739 mmHg 97%
23:00 +10°C° 0 mm 2 mps 739 mmHg 97%

Day after tomorrow, 17 May, Monday

Time Temperature Precipitation Wind Pressure Humidity
00:00 +10°C° 0 mm 2 mps 739 mmHg 97%
01:00 +10°C° 0 mm 2 mps 739 mmHg 97%
02:00 +9°C° 0 mm 2 mps 740 mmHg 97%
03:00 +9°C° 0 mm 2 mps 740 mmHg 97%
04:00 +9°C° 0 mm 2 mps 740 mmHg 97%
05:00 +10°C° 0 mm 2 mps 740 mmHg 92%
06:00 +13°C° 0 mm 2 mps 740 mmHg 87%
07:00 +14°C° 0 mm 2 mps 740 mmHg 83%
08:00 +15°C° 0.1 mm 2 mps 740 mmHg 77%
09:00 +17°C° 0.1 mm 2 mps 740 mmHg 71%
10:00 +18°C° 0.1 mm 3 mps 740 mmHg 64%
11:00 +18°C° 0 mm 3 mps 740 mmHg 61%
12:00 +19°C° 0 mm 3 mps 740 mmHg 57%
13:00 +20°C° 0 mm 3 mps 739 mmHg 53%
14:00 +19°C° 0.2 mm 3 mps 739 mmHg 60%
15:00 +18°C° 0.2 mm 3 mps 739 mmHg 66%
16:00 +17°C° 0.2 mm 4 mps 739 mmHg 72%
17:00 +14°C° 0.5 mm 4 mps 739 mmHg 79%
18:00 +13°C° 0.5 mm 4 mps 739 mmHg 86%
19:00 +10°C° 0.5 mm 5 mps 739 mmHg 92%
20:00 +11°C° 0.6 mm 4 mps 739 mmHg 93%
21:00 +11°C° 0.6 mm 3 mps 739 mmHg 95%
22:00 +10°C° 0.6 mm 2 mps 739 mmHg 96%
23:00 +10°C° 0.9 mm 2 mps 739 mmHg 96%

18 May, Tuesday

Time Temperature Precipitation Wind Pressure Humidity
00:00 +10°C° 0.9 mm 2 mps 739 mmHg 96%
01:00 +10°C° 0.9 mm 2 mps 739 mmHg 97%
02:00 +10°C° 0.3 mm 3 mps 739 mmHg 96%
03:00 +10°C° 0.3 mm 3 mps 739 mmHg 96%
04:00 +10°C° 0.3 mm 4 mps 739 mmHg 96%
05:00 +9°C° 0 mm 5 mps 739 mmHg 93%
06:00 +10°C° 0 mm 5 mps 739 mmHg 90%
07:00 +10°C° 0 mm 6 mps 740 mmHg 87%
08:00 +11°C° 0.1 mm 6 mps 740 mmHg 82%
09:00 +13°C° 0.1 mm 6 mps 740 mmHg 76%
10:00 +13°C° 0.1 mm 6 mps 740 mmHg 70%
11:00 +14°C° 0.1 mm 6 mps 740 mmHg 70%
12:00 +14°C° 0.1 mm 6 mps 740 mmHg 69%
13:00 +14°C° 0.1 mm 6 mps 741 mmHg 68%
14:00 +14°C° 0.3 mm 6 mps 741 mmHg 69%
15:00 +14°C° 0.3 mm 6 mps 741 mmHg 70%
16:00 +14°C° 0.3 mm 6 mps 741 mmHg 70%
17:00 +13°C° 0.1 mm 5 mps 741 mmHg 75%
18:00 +12°C° 0.1 mm 4 mps 741 mmHg 80%
19:00 +11°C° 0.1 mm 4 mps 742 mmHg 85%
20:00 +10°C° 0 mm 3 mps 742 mmHg 88%
21:00 +9°C° 0 mm 3 mps 742 mmHg 91%
22:00 +8°C° 0 mm 3 mps 742 mmHg 94%
23:00 +8°C° 0 mm 3 mps 743 mmHg 94%

19 May, Wednesday

Time Temperature Precipitation Wind Pressure Humidity
00:00 +8°C° 0 mm 3 mps 743 mmHg 95%
01:00 +7°C° 0 mm 3 mps 743 mmHg 95%
02:00 +7°C° 0 mm 3 mps 743 mmHg 95%
03:00 +7°C° 0 mm 3 mps 743 mmHg 95%
04:00 +5°C° 0 mm 3 mps 743 mmHg 95%
05:00 +8°C° 0 mm 3 mps 743 mmHg 89%
06:00 +10°C° 0 mm 4 mps 744 mmHg 83%
07:00 +11°C° 0 mm 4 mps 744 mmHg 77%
08:00 +12°C° 0.1 mm 4 mps 744 mmHg 72%
09:00 +14°C° 0.1 mm 5 mps 744 mmHg 67%
10:00 +15°C° 0.1 mm 5 mps 744 mmHg 62%
11:00 +14°C° 0.3 mm 5 mps 744 mmHg 65%
12:00 +14°C° 0.3 mm 5 mps 744 mmHg 69%
13:00 +13°C° 0.3 mm 4 mps 744 mmHg 72%
14:00 +14°C° 0.1 mm 4 mps 744 mmHg 69%
15:00 +14°C° 0.1 mm 4 mps 744 mmHg 66%
16:00 +14°C° 0.1 mm 4 mps 744 mmHg 63%
17:00 +13°C° 0.1 mm 4 mps 745 mmHg 69%
18:00 +12°C° 0.1 mm 3 mps 745 mmHg 75%
19:00 +10°C° 0.1 mm 3 mps 745 mmHg 80%
20:00 +10°C° 0 mm 3 mps 745 mmHg 82%
21:00 +9°C° 0 mm 3 mps 746 mmHg 85%
22:00 +8°C° 0 mm 2 mps 746 mmHg 87%
23:00 +8°C° 0 mm 2 mps 746 mmHg 88%

20 May, Thursday

Time Temperature Precipitation Wind Pressure Humidity
00:00 +7°C° 0 mm 3 mps 746 mmHg 88%
01:00 +7°C° 0 mm 3 mps 746 mmHg 89%
02:00 +7°C° 0 mm 3 mps 746 mmHg 90%
03:00 +7°C° 0 mm 3 mps 746 mmHg 91%
04:00 +6°C° 0 mm 2 mps 746 mmHg 92%
05:00 +8°C° 0 mm 3 mps 746 mmHg 87%
06:00 +9°C° 0 mm 3 mps 747 mmHg 83%
07:00 +11°C° 0 mm 4 mps 747 mmHg 78%
08:00 +12°C° 0.1 mm 4 mps 747 mmHg 72%
09:00 +13°C° 0.1 mm 4 mps 747 mmHg 67%
10:00 +14°C° 0.1 mm 5 mps 747 mmHg 61%
11:00 +14°C° 0.1 mm 5 mps 747 mmHg 64%
12:00 +14°C° 0.1 mm 4 mps 747 mmHg 66%
13:00 +13°C° 0.1 mm 4 mps 747 mmHg 69%
14:00 +13°C° 0.2 mm 4 mps 746 mmHg 68%
15:00 +14°C° 0.2 mm 4 mps 746 mmHg 66%
16:00 +14°C° 0.2 mm 4 mps 746 mmHg 65%
17:00 +13°C° 0.1 mm 4 mps 746 mmHg 71%
18:00 +12°C° 0.1 mm 3 mps 746 mmHg 77%
19:00 +10°C° 0.1 mm 3 mps 746 mmHg 83%
20:00 +9°C° 0 mm 3 mps 746 mmHg 86%
21:00 +9°C° 0 mm 3 mps 746 mmHg 89%
22:00 +8°C° 0 mm 3 mps 746 mmHg 91%
23:00 +7°C° 0 mm 3 mps 746 mmHg 92%
Show more